FENGYUN 1C DEB

Satellite information

Favourite Embed

Satellite Type and Status

DEBRISIN ORBIT

Key statistics

Satellite FENGYUN 1C DEB at a glance.

Uptime

9618

Days in orbit

Revolutions

≈ 14.5

Per day

Orbit

SSO

Sun Synchronous Orbit

Inclination

98.2

Latest

Satellite identification and parameters

Extended collection of information and parameters for FENGYUN 1C DEB.

Object identification

Identified? True

Debris? True

Object name: FENGYUN 1C DEB

International designator: 1999-025CYT

Object number (NORAD): 32350

Object ID (CCSDS): 32350

Country: PEOPLES REPUBLIC OF CHINA (PRC)

Current information (Y/N): Y

RCS size: SMALL

Orbital parameters

Period: 99.225 minutes

Inclination: 98.2442 deg

SMA: 7099.702 km

Apoapsis: 914.025 km

Periapsis: 529.109 km

RAAN: 295.878 deg

Eccentricy: 0.02710789

Argument of periapsis: 238.158 deg

Mean anomaly: 119.2968 deg

Mean motion: 14.51251076 rev/day

Mean motion (dot): 0.00004638 rev/day2

B* drag term: 0.00073119087 1/REarth

Two-line elements (TLE)

Creation date: Sept. 7, 2025, 3:09 a.m.

Reference frame: TEME

Reference center: EARTH

Epoch: Sept. 6, 2025, 8:46 a.m. UTC

TLE line 0: 0 FENGYUN 1C DEB

TLE line 1: 1 32350U 99025CYT 25249.36573259 .00004638 00000-0 73119-3 0 9995

TLE line 2: 2 32350 98.2442 295.8780 0271079 238.1580 119.2968 14.51251076961145

Live tracking on map

Real-time ground track for satellite FENGYUN 1C DEB.

In-orbit conjunctions

A list of the most updated potential collisions computed for object FENGYUN 1C DEB.

Target Orbit TCA Probability of collision Miss distance Type
SL-8 DEB LEO 2025-06-04 15:51:24 0.0002233497 95.0 (m) DEBRIS
IRIDIUM 33 DEB LEO 2024-11-10 18:08:58 0.000506014 236.0 (m) DEBRIS

Associated space launch

Chinese polar orbiting meteorological satellite

FENGYUN 1C DEB was lifted into orbit during the mission ‘Long March 4B | Feng Yun 1C’, on board a Long March 4B space rocket.

The launch took place on May 10, 1999, 1:33 a.m. from Launch Complex 7.

For more information about the launch, click the button.

Launch to space Long March 4B | Feng Yun 1C
Long March 4B | Feng Yun 1C

Agency: N/A

Status: Launch Successful

Launch date: May 10, 1999, 1:33 a.m. UTC

Rocket: Long March 4B

Launch pad: Launch Complex 7

Location: Taiyuan Satellite Launch Center, People's Republic of China

...

Latest news about this satellite

There are no fresh news available about this satellite. Check back as we update our databases every day.


Newsletter sign-up

Weekly statistics, charts and insights to help you stay on top of the space industry.